DUCHIFAT-1

Last updated on Mon Sep 15 2025 00:03:09 GMT+0000 (Coordinated Universal Time)

1 40021U 14033M 25257.03118617 .00020709 00000+0 65658-3 0 9996 2 40021 98.0927 280.0211 0006679 357.0198 3.1001 15.32725253613076
UTC large
Height (km)
Speed (km/s)
/
Latitude / Longitude
Inclination (degrees)
Orbital Period (minutes)
Azimuth
Elevation
Range (km)
Doppler Factor

Next 0 passes for location: London (51.5072 / 0.1276)

Sorry there are no passes over London.